Time,TemperatureF,DewpointF,PressureIn,WindDirection,WindDirectionDegrees,WindSpeedMPH,WindSpeedGustMPH,Humidity,HourlyPrecipIn,Conditions,Clouds,dailyrainin,SoftwareType,DateUTC
2013-05-16 00:03:00,52.0,38.0,26.82,ESE,112,0.0,4.0,59,0.00,,,0.00,Rainwise IP-100,2013-05-16 06:03:00,
2013-05-16 00:08:00,52.0,38.0,26.83,East,90,0.0,3.0,59,0.00,,,0.00,Rainwise IP-100,2013-05-16 06:08:00,
2013-05-16 00:13:00,51.0,38.0,26.83,East,90,0.0,0.0,60,0.00,,,0.00,Rainwise IP-100,2013-05-16 06:13:00,
2013-05-16 00:18:00,51.0,38.0,26.83,East,90,0.0,2.0,60,0.00,,,0.00,Rainwise IP-100,2013-05-16 06:18:00,
2013-05-16 00:23:00,51.0,38.0,26.83,East,90,0.0,1.0,61,0.00,,,0.00,Rainwise IP-100,2013-05-16 06:23:00,
2013-05-16 00:28:00,51.0,38.0,26.83,ESE,112,1.0,3.0,61,0.00,,,0.00,Rainwise IP-100,2013-05-16 06:28:00,
2013-05-16 00:33:00,51.0,39.0,26.83,ESE,112,4.0,4.0,62,0.00,,,0.00,Rainwise IP-100,2013-05-16 06:33:00,
2013-05-16 00:38:00,51.0,38.0,26.83,ENE,67,1.0,5.0,61,0.00,,,0.00,Rainwise IP-100,2013-05-16 06:38:00,
2013-05-16 00:43:00,51.0,38.0,26.83,East,90,2.0,6.0,60,0.00,,,0.00,Rainwise IP-100,2013-05-16 06:43:00,
2013-05-16 00:48:00,51.0,38.0,26.84,East,90,2.0,6.0,60,0.00,,,0.00,Rainwise IP-100,2013-05-16 06:48:00,
2013-05-16 00:53:00,51.0,38.0,26.84,ESE,112,4.0,4.0,61,0.00,,,0.00,Rainwise IP-100,2013-05-16 06:53:00,
2013-05-16 00:58:00,51.0,38.0,26.84,SSE,157,2.0,4.0,60,0.00,,,0.00,Rainwise IP-100,2013-05-16 06:58:00,
2013-05-16 01:03:00,50.0,37.0,26.84,South,180,3.0,4.0,62,0.00,,,0.00,Rainwise IP-100,2013-05-16 07:03:00,
2013-05-16 01:08:00,50.0,37.0,26.84,SSE,157,1.0,5.0,61,0.00,,,0.00,Rainwise IP-100,2013-05-16 07:08:00,
2013-05-16 01:13:00,50.0,37.0,26.84,SSE,157,3.0,5.0,62,0.00,,,0.00,Rainwise IP-100,2013-05-16 07:13:00,
2013-05-16 01:18:00,50.0,37.0,26.84,ESE,112,0.0,5.0,60,0.00,,,0.00,Rainwise IP-100,2013-05-16 07:18:00,
2013-05-16 01:23:00,50.0,37.0,26.84,SE,135,0.0,4.0,62,0.00,,,0.00,Rainwise IP-100,2013-05-16 07:23:00,
2013-05-16 01:28:00,50.0,37.0,26.84,ENE,67,2.0,7.0,62,0.00,,,0.00,Rainwise IP-100,2013-05-16 07:28:00,
2013-05-16 01:33:00,49.0,37.0,26.84,ENE,67,2.0,6.0,63,0.00,,,0.00,Rainwise IP-100,2013-05-16 07:33:00,
2013-05-16 01:38:00,50.0,37.0,26.84,East,90,3.0,6.0,62,0.00,,,0.00,Rainwise IP-100,2013-05-16 07:38:00,
2013-05-16 01:43:00,50.0,38.0,26.84,ESE,112,4.0,6.0,63,0.00,,,0.00,Rainwise IP-100,2013-05-16 07:43:00,
2013-05-16 01:48:00,50.0,38.0,26.84,East,90,3.0,7.0,63,0.00,,,0.00,Rainwise IP-100,2013-05-16 07:48:00,
2013-05-16 01:53:00,50.0,38.0,26.84,ENE,67,3.0,6.0,63,0.00,,,0.00,Rainwise IP-100,2013-05-16 07:53:00,
2013-05-16 01:58:00,50.0,38.0,26.84,East,90,2.0,5.0,63,0.00,,,0.00,Rainwise IP-100,2013-05-16 07:58:00,
2013-05-16 02:03:00,50.0,38.0,26.84,ENE,67,0.0,5.0,64,0.00,,,0.00,Rainwise IP-100,2013-05-16 08:03:00,
2013-05-16 02:08:00,50.0,38.0,26.84,East,90,0.0,3.0,63,0.00,,,0.00,Rainwise IP-100,2013-05-16 08:08:00,
2013-05-16 02:13:00,49.0,38.0,26.84,WNW,292,3.0,5.0,65,0.00,,,0.00,Rainwise IP-100,2013-05-16 08:13:00,
2013-05-16 02:18:00,49.0,38.0,26.85,WSW,247,3.0,5.0,65,0.00,,,0.00,Rainwise IP-100,2013-05-16 08:18:00,
2013-05-16 02:23:00,48.0,38.0,26.85,West,270,2.0,4.0,67,0.00,,,0.00,Rainwise IP-100,2013-05-16 08:23:00,
2013-05-16 02:28:00,48.0,38.0,26.85,West,270,2.0,3.0,68,0.00,,,0.00,Rainwise IP-100,2013-05-16 08:28:00,
2013-05-16 02:33:00,47.0,37.0,26.85,West,270,0.0,2.0,69,0.00,,,0.00,Rainwise IP-100,2013-05-16 08:33:00,
2013-05-16 02:38:00,47.0,37.0,26.85,West,270,0.0,0.0,70,0.00,,,0.00,Rainwise IP-100,2013-05-16 08:38:00,
2013-05-16 02:43:00,47.0,38.0,26.85,West,270,0.0,0.0,72,0.00,,,0.00,Rainwise IP-100,2013-05-16 08:43:00,
2013-05-16 02:48:00,47.0,38.0,26.85,West,270,0.0,0.0,72,0.00,,,0.00,Rainwise IP-100,2013-05-16 08:48:00,
2013-05-16 02:53:00,47.0,39.0,26.85,West,270,0.0,0.0,74,0.00,,,0.00,Rainwise IP-100,2013-05-16 08:53:00,
2013-05-16 02:58:00,47.0,38.0,26.85,West,270,0.0,0.0,72,0.00,,,0.00,Rainwise IP-100,2013-05-16 08:58:00,
2013-05-16 03:03:00,47.0,38.0,26.85,West,270,0.0,0.0,72,0.00,,,0.00,Rainwise IP-100,2013-05-16 09:03:00,
2013-05-16 03:08:00,47.0,38.0,26.85,West,270,0.0,0.0,72,0.00,,,0.00,Rainwise IP-100,2013-05-16 09:08:00,
2013-05-16 03:13:00,47.0,38.0,26.85,West,270,0.0,0.0,72,0.00,,,0.00,Rainwise IP-100,2013-05-16 09:13:00,
2013-05-16 03:18:00,47.0,38.0,26.85,West,270,0.0,0.0,72,0.00,,,0.00,Rainwise IP-100,2013-05-16 09:18:00,
2013-05-16 03:23:00,47.0,38.0,26.85,West,270,0.0,0.0,72,0.00,,,0.00,Rainwise IP-100,2013-05-16 09:23:00,
2013-05-16 03:28:00,46.0,38.0,26.85,West,270,0.0,0.0,73,0.00,,,0.00,Rainwise IP-100,2013-05-16 09:28:00,
2013-05-16 03:33:00,46.0,38.0,26.86,West,270,0.0,0.0,74,0.00,,,0.00,Rainwise IP-100,2013-05-16 09:33:00,
2013-05-16 03:38:00,46.0,39.0,26.86,West,270,0.0,0.0,76,0.00,,,0.00,Rainwise IP-100,2013-05-16 09:38:00,
2013-05-16 03:43:00,46.0,39.0,26.86,West,270,0.0,0.0,76,0.00,,,0.00,Rainwise IP-100,2013-05-16 09:43:00,
2013-05-16 03:48:00,46.0,39.0,26.86,West,270,0.0,0.0,76,0.00,,,0.00,Rainwise IP-100,2013-05-16 09:48:00,
2013-05-16 03:53:00,46.0,39.0,26.86,West,270,0.0,0.0,76,0.00,,,0.00,Rainwise IP-100,2013-05-16 09:53:00,
2013-05-16 03:58:00,46.0,38.0,26.86,West,270,2.0,3.0,75,0.00,,,0.00,Rainwise IP-100,2013-05-16 09:58:00,
2013-05-16 04:03:00,46.0,38.0,26.86,West,270,0.0,2.0,75,0.00,,,0.00,Rainwise IP-100,2013-05-16 10:03:00,
2013-05-16 04:08:00,46.0,38.0,26.86,West,270,0.0,0.0,74,0.00,,,0.00,Rainwise IP-100,2013-05-16 10:08:00,
2013-05-16 04:13:00,47.0,39.0,26.86,ESE,112,1.0,2.0,74,0.00,,,0.00,Rainwise IP-100,2013-05-16 10:13:00,
2013-05-16 04:18:00,47.0,38.0,26.85,SE,135,0.0,2.0,73,0.00,,,0.00,Rainwise IP-100,2013-05-16 10:18:00,
2013-05-16 04:23:00,47.0,39.0,26.85,SE,135,0.0,0.0,74,0.00,,,0.00,Rainwise IP-100,2013-05-16 10:23:00,
2013-05-16 04:28:00,47.0,39.0,26.85,SE,135,0.0,0.0,74,0.00,,,0.00,Rainwise IP-100,2013-05-16 10:28:00,
2013-05-16 04:33:00,47.0,38.0,26.85,SE,135,0.0,0.0,73,0.00,,,0.00,Rainwise IP-100,2013-05-16 10:33:00,
2013-05-16 04:38:00,47.0,39.0,26.85,SE,135,0.0,0.0,74,0.00,,,0.00,Rainwise IP-100,2013-05-16 10:38:00,
2013-05-16 04:43:00,47.0,39.0,26.85,SE,135,0.0,0.0,74,0.00,,,0.00,Rainwise IP-100,2013-05-16 10:43:00,
2013-05-16 04:48:00,47.0,39.0,26.85,SW,225,0.0,3.0,75,0.00,,,0.00,Rainwise IP-100,2013-05-16 10:48:00,
2013-05-16 04:53:00,47.0,39.0,26.85,SW,225,0.0,0.0,74,0.00,,,0.00,Rainwise IP-100,2013-05-16 10:53:00,
2013-05-16 04:58:00,46.0,38.0,26.85,SW,225,0.0,0.0,75,0.00,,,0.00,Rainwise IP-100,2013-05-16 10:58:00,
2013-05-16 05:03:00,46.0,39.0,26.85,SW,225,0.0,0.0,76,0.00,,,0.00,Rainwise IP-100,2013-05-16 11:03:00,
2013-05-16 05:08:00,47.0,39.0,26.85,SW,225,0.0,0.0,74,0.00,,,0.00,Rainwise IP-100,2013-05-16 11:08:00,
2013-05-16 05:13:00,47.0,39.0,26.85,SW,225,0.0,0.0,75,0.00,,,0.00,Rainwise IP-100,2013-05-16 11:13:00,
2013-05-16 05:18:00,47.0,39.0,26.85,SW,225,0.0,0.0,74,0.00,,,0.00,Rainwise IP-100,2013-05-16 11:18:00,
2013-05-16 05:23:00,47.0,39.0,26.85,SW,225,0.0,0.0,74,0.00,,,0.00,Rainwise IP-100,2013-05-16 11:23:00,
2013-05-16 05:28:00,47.0,39.0,26.85,SW,225,0.0,1.0,74,0.00,,,0.00,Rainwise IP-100,2013-05-16 11:28:00,
2013-05-16 05:33:00,47.0,39.0,26.85,SW,225,0.0,0.0,74,0.00,,,0.00,Rainwise IP-100,2013-05-16 11:33:00,
2013-05-16 05:38:00,47.0,39.0,26.85,SW,225,0.0,0.0,74,0.00,,,0.00,Rainwise IP-100,2013-05-16 11:38:00,
2013-05-16 05:43:00,47.0,39.0,26.85,SW,225,0.0,0.0,76,0.00,,,0.00,Rainwise IP-100,2013-05-16 11:43:00,
2013-05-16 05:48:00,47.0,39.0,26.85,SW,225,0.0,0.0,76,0.00,,,0.00,Rainwise IP-100,2013-05-16 11:48:00,
2013-05-16 05:53:00,47.0,39.0,26.85,SW,225,0.0,0.0,76,0.00,,,0.00,Rainwise IP-100,2013-05-16 11:53:00,
2013-05-16 05:58:00,47.0,40.0,26.85,SW,225,0.0,0.0,77,0.00,,,0.00,Rainwise IP-100,2013-05-16 11:58:00,
2013-05-16 06:03:00,47.0,40.0,26.86,SW,225,0.0,1.0,77,0.00,,,0.00,Rainwise IP-100,2013-05-16 12:03:00,
2013-05-16 06:08:00,47.0,39.0,26.86,SW,225,0.0,1.0,76,0.00,,,0.00,Rainwise IP-100,2013-05-16 12:08:00,
2013-05-16 06:13:00,47.0,40.0,26.86,SW,225,0.0,2.0,77,0.00,,,0.00,Rainwise IP-100,2013-05-16 12:13:00,
2013-05-16 06:18:00,47.0,39.0,26.86,SW,225,0.0,2.0,76,0.00,,,0.00,Rainwise IP-100,2013-05-16 12:18:00,
2013-05-16 06:23:00,47.0,40.0,26.86,SW,225,0.0,1.0,77,0.00,,,0.00,Rainwise IP-100,2013-05-16 12:23:00,
2013-05-16 06:28:00,47.0,40.0,26.87,SW,225,0.0,1.0,78,0.00,,,0.00,Rainwise IP-100,2013-05-16 12:28:00,
2013-05-16 06:33:00,46.0,40.0,26.87,SW,225,0.0,2.0,80,0.00,,,0.00,Rainwise IP-100,2013-05-16 12:33:00,
2013-05-16 06:38:00,47.0,40.0,26.87,SW,225,0.0,0.0,79,0.00,,,0.00,Rainwise IP-100,2013-05-16 12:38:00,
2013-05-16 06:43:00,46.0,40.0,26.87,SW,225,0.0,0.0,80,0.00,,,0.00,Rainwise IP-100,2013-05-16 12:43:00,
2013-05-16 06:48:00,47.0,40.0,26.87,NNW,337,2.0,4.0,79,0.00,,,0.00,Rainwise IP-100,2013-05-16 12:48:00,
2013-05-16 06:53:00,46.0,40.0,26.87,NW,315,5.0,5.0,80,0.00,,,0.00,Rainwise IP-100,2013-05-16 12:53:00,
2013-05-16 06:58:00,46.0,39.0,26.87,NW,315,2.0,5.0,79,0.00,,,0.00,Rainwise IP-100,2013-05-16 12:58:00,
2013-05-16 07:03:00,46.0,39.0,26.87,NW,315,0.0,2.0,79,0.00,,,0.00,Rainwise IP-100,2013-05-16 13:03:00,
2013-05-16 07:08:00,47.0,40.0,26.87,NW,315,0.0,2.0,77,0.00,,,0.00,Rainwise IP-100,2013-05-16 13:08:00,
2013-05-16 07:13:00,46.0,39.0,26.87,WNW,292,2.0,0.0,79,0.00,,,0.00,Rainwise IP-100,2013-05-16 13:13:00,
2013-05-16 07:18:00,46.0,39.0,26.88,WNW,292,2.0,4.0,78,0.00,,,0.00,Rainwise IP-100,2013-05-16 13:18:00,
2013-05-16 07:23:00,46.0,39.0,26.88,WNW,292,0.0,3.0,79,0.00,,,0.00,Rainwise IP-100,2013-05-16 13:23:00,
2013-05-16 07:28:00,46.0,41.0,26.88,WNW,292,0.0,3.0,83,0.00,,,0.00,Rainwise IP-100,2013-05-16 13:28:00,
2013-05-16 07:33:00,46.0,40.0,26.88,WNW,292,0.0,0.0,82,0.00,,,0.00,Rainwise IP-100,2013-05-16 13:33:00,
2013-05-16 07:38:00,46.0,40.0,26.88,WNW,292,1.0,3.0,81,0.00,,,0.00,Rainwise IP-100,2013-05-16 13:38:00,
2013-05-16 07:43:00,46.0,41.0,26.88,West,270,3.0,4.0,83,0.00,,,0.00,Rainwise IP-100,2013-05-16 13:43:00,
2013-05-16 07:48:00,46.0,41.0,26.89,West,270,5.0,6.0,83,0.00,,,0.00,Rainwise IP-100,2013-05-16 13:48:00,
2013-05-16 07:53:00,46.0,41.0,26.89,WNW,292,5.0,7.0,85,0.00,,,0.00,Rainwise IP-100,2013-05-16 13:53:00,
2013-05-16 07:58:00,46.0,41.0,26.89,West,270,2.0,5.0,85,0.06,,,0.01,Rainwise IP-100,2013-05-16 13:58:00,
2013-05-16 08:03:00,46.0,42.0,26.89,West,270,1.0,4.0,86,0.06,,,0.01,Rainwise IP-100,2013-05-16 14:03:00,
2013-05-16 08:08:00,46.0,41.0,26.89,NW,315,0.0,6.0,85,0.00,,,0.01,Rainwise IP-100,2013-05-16 14:08:00,
2013-05-16 08:13:00,45.0,41.0,26.89,WNW,292,0.0,3.0,87,0.00,,,0.02,Rainwise IP-100,2013-05-16 14:13:00,
2013-05-16 08:18:00,45.0,41.0,26.89,WNW,292,0.0,2.0,86,0.06,,,0.02,Rainwise IP-100,2013-05-16 14:18:00,
2013-05-16 08:23:00,45.0,42.0,26.89,WNW,292,0.0,0.0,89,0.06,,,0.02,Rainwise IP-100,2013-05-16 14:23:00,
2013-05-16 08:28:00,46.0,43.0,26.90,WNW,292,0.0,1.0,89,0.06,,,0.03,Rainwise IP-100,2013-05-16 14:28:00,
2013-05-16 08:33:00,45.0,42.0,26.90,WNW,292,0.0,1.0,89,0.12,,,0.04,Rainwise IP-100,2013-05-16 14:33:00,
2013-05-16 08:38:00,46.0,42.0,26.90,WNW,292,0.0,0.0,88,0.12,,,0.05,Rainwise IP-100,2013-05-16 14:38:00,
2013-05-16 08:43:00,46.0,43.0,26.90,North,360,2.0,5.0,91,0.06,,,0.05,Rainwise IP-100,2013-05-16 14:43:00,
2013-05-16 08:48:00,46.0,43.0,26.90,NW,315,1.0,3.0,89,0.06,,,0.06,Rainwise IP-100,2013-05-16 14:48:00,
2013-05-16 08:53:00,46.0,43.0,26.90,NNW,337,2.0,6.0,91,0.06,,,0.06,Rainwise IP-100,2013-05-16 14:53:00,
2013-05-16 08:58:00,46.0,43.0,26.90,North,360,0.0,5.0,90,0.06,,,0.07,Rainwise IP-100,2013-05-16 14:58:00,
2013-05-16 09:03:00,45.0,41.0,26.90,WNW,292,2.0,2.0,88,0.06,,,0.07,Rainwise IP-100,2013-05-16 15:03:00,
2013-05-16 09:08:00,46.0,42.0,26.91,WNW,292,2.0,3.0,87,0.00,,,0.07,Rainwise IP-100,2013-05-16 15:08:00,
2013-05-16 09:13:00,46.0,43.0,26.91,WNW,292,0.0,3.0,89,0.00,,,0.07,Rainwise IP-100,2013-05-16 15:13:00,
2013-05-16 09:18:00,46.0,42.0,26.91,WNW,292,0.0,0.0,88,0.00,,,0.07,Rainwise IP-100,2013-05-16 15:18:00,
2013-05-16 09:23:00,46.0,43.0,26.91,WNW,292,0.0,0.0,89,0.06,,,0.08,Rainwise IP-100,2013-05-16 15:23:00,
2013-05-16 09:28:00,46.0,42.0,26.91,NNE,22,0.0,0.0,87,0.06,,,0.08,Rainwise IP-100,2013-05-16 15:28:00,
2013-05-16 09:33:00,46.0,42.0,26.91,NNE,22,0.0,0.0,87,0.00,,,0.08,Rainwise IP-100,2013-05-16 15:33:00,
2013-05-16 09:38:00,47.0,43.0,26.90,NNE,22,0.0,0.0,87,0.00,,,0.08,Rainwise IP-100,2013-05-16 15:38:00,
2013-05-16 09:43:00,46.0,42.0,26.90,SSE,157,0.0,3.0,88,0.00,,,0.08,Rainwise IP-100,2013-05-16 15:43:00,
2013-05-16 09:48:00,47.0,43.0,26.89,SSE,157,3.0,3.0,87,0.00,,,0.08,Rainwise IP-100,2013-05-16 15:48:00,
2013-05-16 09:53:00,47.0,43.0,26.89,SSE,157,2.0,3.0,88,0.00,,,0.08,Rainwise IP-100,2013-05-16 15:53:00,
2013-05-16 09:58:00,47.0,43.0,26.89,ESE,112,2.0,4.0,87,0.00,,,0.08,Rainwise IP-100,2013-05-16 15:58:00,
2013-05-16 10:03:00,47.0,43.0,26.89,ESE,112,0.0,3.0,88,0.00,,,0.08,Rainwise IP-100,2013-05-16 16:03:00,
2013-05-16 10:08:00,48.0,45.0,26.89,ESE,112,0.0,1.0,89,0.00,,,0.08,Rainwise IP-100,2013-05-16 16:08:00,
2013-05-16 10:13:00,48.0,45.0,26.89,ESE,112,0.0,0.0,89,0.00,,,0.08,Rainwise IP-100,2013-05-16 16:13:00,
2013-05-16 10:15:00,48.0,45.0,26.89,ESE,112,0.0,0.0,89,0.00,,,0.08,Rainwise IP-100,2013-05-16 16:15:00,
2013-05-16 10:20:00,48.0,45.0,26.89,ESE,112,0.0,0.0,88,0.00,,,0.08,Rainwise IP-100,2013-05-16 16:20:00,
2013-05-16 10:25:00,49.0,45.0,26.89,ESE,112,0.0,2.0,87,0.00,,,0.08,Rainwise IP-100,2013-05-16 16:25:00,
2013-05-16 10:30:00,49.0,45.0,26.89,SE,135,0.0,3.0,87,0.00,,,0.08,Rainwise IP-100,2013-05-16 16:30:00,
2013-05-16 10:35:00,49.0,45.0,26.89,SE,135,0.0,0.0,87,0.00,,,0.08,Rainwise IP-100,2013-05-16 16:35:00,
2013-05-16 10:40:00,49.0,45.0,26.89,SW,225,0.0,3.0,87,0.00,,,0.08,Rainwise IP-100,2013-05-16 16:40:00,
2013-05-16 10:45:00,49.0,45.0,26.89,SW,225,0.0,2.0,86,0.00,,,0.08,Rainwise IP-100,2013-05-16 16:45:00,
2013-05-16 10:50:00,49.0,44.0,26.89,SW,225,0.0,1.0,84,0.06,,,0.09,Rainwise IP-100,2013-05-16 16:50:00,
2013-05-16 10:55:00,49.0,45.0,26.89,SSW,202,0.0,4.0,87,0.06,,,0.09,Rainwise IP-100,2013-05-16 16:55:00,
2013-05-16 11:00:00,49.0,46.0,26.89,SW,225,0.0,2.0,88,0.06,,,0.10,Rainwise IP-100,2013-05-16 17:00:00,
2013-05-16 11:05:00,49.0,45.0,26.89,SW,225,0.0,0.0,87,0.06,,,0.10,Rainwise IP-100,2013-05-16 17:05:00,
2013-05-16 11:10:00,49.0,45.0,26.89,SW,225,0.0,2.0,87,0.06,,,0.11,Rainwise IP-100,2013-05-16 17:10:00,
2013-05-16 11:15:00,48.0,45.0,26.89,SSW,202,1.0,3.0,87,0.06,,,0.11,Rainwise IP-100,2013-05-16 17:15:00,
2013-05-16 11:20:00,48.0,45.0,26.90,SSW,202,0.0,1.0,87,0.00,,,0.11,Rainwise IP-100,2013-05-16 17:20:00,
2013-05-16 11:25:00,48.0,44.0,26.90,SSW,202,0.0,0.0,86,0.00,,,0.11,Rainwise IP-100,2013-05-16 17:25:00,
2013-05-16 11:30:00,49.0,45.0,26.89,ESE,112,1.0,2.0,87,0.00,,,0.11,Rainwise IP-100,2013-05-16 17:30:00,
2013-05-16 11:35:00,49.0,45.0,26.89,ESE,112,0.0,2.0,87,0.06,,,0.12,Rainwise IP-100,2013-05-16 17:35:00,
2013-05-16 11:40:00,49.0,45.0,26.89,SE,135,1.0,3.0,87,0.06,,,0.12,Rainwise IP-100,2013-05-16 17:40:00,
2013-05-16 11:45:00,50.0,46.0,26.89,NE,45,0.0,3.0,87,0.00,,,0.12,Rainwise IP-100,2013-05-16 17:45:00,
2013-05-16 11:50:00,51.0,47.0,26.88,SSW,202,1.0,3.0,85,0.00,,,0.12,Rainwise IP-100,2013-05-16 17:50:00,
2013-05-16 11:55:00,52.0,47.0,26.88,ENE,67,6.0,6.0,81,0.00,,,0.12,Rainwise IP-100,2013-05-16 17:55:00,
2013-05-16 12:00:00,52.0,46.0,26.86,NE,45,1.0,7.0,80,0.00,,,0.12,Rainwise IP-100,2013-05-16 18:00:00,
2013-05-16 12:05:00,52.0,45.0,26.86,East,90,0.0,5.0,77,0.00,,,0.12,Rainwise IP-100,2013-05-16 18:05:00,
2013-05-16 12:10:00,52.0,47.0,26.86,WNW,292,2.0,5.0,81,0.00,,,0.12,Rainwise IP-100,2013-05-16 18:10:00,
2013-05-16 12:15:00,52.0,45.0,26.86,ENE,67,0.0,3.0,77,0.00,,,0.12,Rainwise IP-100,2013-05-16 18:15:00,
2013-05-16 12:20:00,53.0,44.0,26.86,NE,45,1.0,3.0,73,0.00,,,0.12,Rainwise IP-100,2013-05-16 18:20:00,
2013-05-16 12:25:00,54.0,46.0,26.86,NE,45,1.0,3.0,74,0.00,,,0.12,Rainwise IP-100,2013-05-16 18:25:00,
2013-05-16 12:30:00,54.0,46.0,26.85,SSW,202,0.0,5.0,74,0.00,,,0.12,Rainwise IP-100,2013-05-16 18:30:00,
2013-05-16 12:35:00,55.0,45.0,26.85,WSW,247,3.0,7.0,68,0.00,,,0.12,Rainwise IP-100,2013-05-16 18:35:00,
2013-05-16 12:40:00,55.0,45.0,26.84,NE,45,3.0,6.0,69,0.00,,,0.12,Rainwise IP-100,2013-05-16 18:40:00,
2013-05-16 12:45:00,55.0,43.0,26.84,NNW,337,1.0,6.0,64,0.00,,,0.12,Rainwise IP-100,2013-05-16 18:45:00,
2013-05-16 12:50:00,55.0,44.0,26.84,ESE,112,3.0,6.0,65,0.00,,,0.12,Rainwise IP-100,2013-05-16 18:50:00,
2013-05-16 12:55:00,55.0,44.0,26.84,NNW,337,2.0,5.0,67,0.00,,,0.12,Rainwise IP-100,2013-05-16 18:55:00,
2013-05-16 13:00:00,55.0,43.0,26.84,North,360,5.0,6.0,64,0.00,,,0.12,Rainwise IP-100,2013-05-16 19:00:00,
2013-05-16 13:05:00,55.0,43.0,26.84,ENE,67,2.0,6.0,63,0.00,,,0.12,Rainwise IP-100,2013-05-16 19:05:00,
2013-05-16 13:10:00,55.0,43.0,26.84,SSE,157,1.0,7.0,63,0.00,,,0.12,Rainwise IP-100,2013-05-16 19:10:00,
2013-05-16 13:15:00,56.0,42.0,26.84,East,90,3.0,8.0,59,0.00,,,0.12,Rainwise IP-100,2013-05-16 19:15:00,
2013-05-16 13:20:00,56.0,43.0,26.83,West,270,0.0,4.0,63,0.00,,,0.12,Rainwise IP-100,2013-05-16 19:20:00,
2013-05-16 13:25:00,56.0,40.0,26.83,North,360,5.0,7.0,56,0.00,,,0.12,Rainwise IP-100,2013-05-16 19:25:00,
2013-05-16 13:30:00,55.0,41.0,26.83,ESE,112,5.0,7.0,58,0.00,,,0.12,Rainwise IP-100,2013-05-16 19:30:00,
2013-05-16 13:35:00,56.0,41.0,26.83,NE,45,1.0,6.0,58,0.00,,,0.12,Rainwise IP-100,2013-05-16 19:35:00,
2013-05-16 13:40:00,56.0,41.0,26.83,SSE,157,4.0,7.0,57,0.00,,,0.12,Rainwise IP-100,2013-05-16 19:40:00,
2013-05-16 13:45:00,57.0,43.0,26.83,South,180,4.0,5.0,59,0.00,,,0.12,Rainwise IP-100,2013-05-16 19:45:00,
2013-05-16 13:50:00,57.0,42.0,26.82,NNE,22,0.0,6.0,57,0.00,,,0.12,Rainwise IP-100,2013-05-16 19:50:00,
2013-05-16 13:55:00,57.0,40.0,26.82,ENE,67,5.0,6.0,54,0.00,,,0.12,Rainwise IP-100,2013-05-16 19:55:00,
2013-05-16 14:00:00,57.0,41.0,26.82,NE,45,3.0,6.0,56,0.00,,,0.12,Rainwise IP-100,2013-05-16 20:00:00,
2013-05-16 14:05:00,56.0,39.0,26.82,South,180,6.0,6.0,54,0.00,,,0.12,Rainwise IP-100,2013-05-16 20:05:00,
2013-05-16 14:10:00,57.0,41.0,26.81,ENE,67,1.0,6.0,55,0.00,,,0.12,Rainwise IP-100,2013-05-16 20:10:00,
2013-05-16 14:15:00,58.0,41.0,26.81,ENE,67,4.0,7.0,53,0.00,,,0.12,Rainwise IP-100,2013-05-16 20:15:00,
2013-05-16 14:20:00,58.0,40.0,26.81,East,90,1.0,6.0,51,0.00,,,0.12,Rainwise IP-100,2013-05-16 20:20:00,
2013-05-16 14:25:00,58.0,40.0,26.81,NNE,22,3.0,7.0,51,0.00,,,0.12,Rainwise IP-100,2013-05-16 20:25:00,
2013-05-16 14:30:00,59.0,41.0,26.80,NE,45,3.0,6.0,51,0.00,,,0.12,Rainwise IP-100,2013-05-16 20:30:00,
2013-05-16 14:35:00,59.0,40.0,26.80,NW,315,1.0,8.0,50,0.00,,,0.12,Rainwise IP-100,2013-05-16 20:35:00,
2013-05-16 14:40:00,59.0,40.0,26.80,ESE,112,3.0,7.0,49,0.00,,,0.12,Rainwise IP-100,2013-05-16 20:40:00,
2013-05-16 14:45:00,59.0,40.0,26.80,East,90,1.0,5.0,50,0.00,,,0.12,Rainwise IP-100,2013-05-16 20:45:00,
2013-05-16 14:50:00,59.0,39.0,26.79,South,180,5.0,7.0,48,0.00,,,0.12,Rainwise IP-100,2013-05-16 20:50:00,
2013-05-16 14:55:00,60.0,41.0,26.79,West,270,0.0,7.0,50,0.00,,,0.12,Rainwise IP-100,2013-05-16 20:55:00,
2013-05-16 15:00:00,60.0,41.0,26.78,WSW,247,1.0,7.0,50,0.00,,,0.12,Rainwise IP-100,2013-05-16 21:00:00,
2013-05-16 15:05:00,60.0,40.0,26.78,WSW,247,2.0,9.0,49,0.00,,,0.12,Rainwise IP-100,2013-05-16 21:05:00,
2013-05-16 15:10:00,60.0,40.0,26.78,East,90,4.0,7.0,49,0.00,,,0.12,Rainwise IP-100,2013-05-16 21:10:00,
2013-05-16 15:15:00,60.0,40.0,26.78,SSE,157,1.0,8.0,49,0.00,,,0.12,Rainwise IP-100,2013-05-16 21:15:00,
2013-05-16 15:20:00,60.0,41.0,26.78,SSE,157,7.0,8.0,50,0.00,,,0.12,Rainwise IP-100,2013-05-16 21:20:00,
2013-05-16 15:25:00,60.0,40.0,26.78,SSW,202,2.0,7.0,49,0.00,,,0.12,Rainwise IP-100,2013-05-16 21:25:00,
2013-05-16 15:30:00,61.0,40.0,26.77,SSW,202,5.0,6.0,47,0.00,,,0.12,Rainwise IP-100,2013-05-16 21:30:00,
2013-05-16 15:35:00,62.0,41.0,26.77,SSE,157,6.0,7.0,47,0.00,,,0.12,Rainwise IP-100,2013-05-16 21:35:00,
2013-05-16 15:40:00,61.0,40.0,26.77,West,270,3.0,9.0,47,0.00,,,0.12,Rainwise IP-100,2013-05-16 21:40:00,
2013-05-16 15:45:00,62.0,41.0,26.77,North,360,3.0,9.0,47,0.00,,,0.12,Rainwise IP-100,2013-05-16 21:45:00,
2013-05-16 15:50:00,62.0,41.0,26.76,SSE,157,7.0,9.0,47,0.00,,,0.12,Rainwise IP-100,2013-05-16 21:50:00,
2013-05-16 15:55:00,61.0,40.0,26.76,ESE,112,2.0,9.0,46,0.00,,,0.12,Rainwise IP-100,2013-05-16 21:55:00,
2013-05-16 16:00:00,61.0,40.0,26.77,South,180,3.0,10.0,47,0.00,,,0.12,Rainwise IP-100,2013-05-16 22:00:00,
2013-05-16 16:05:00,61.0,41.0,26.77,NW,315,5.0,9.0,49,0.00,,,0.12,Rainwise IP-100,2013-05-16 22:05:00,
2013-05-16 16:10:00,62.0,42.0,26.75,SSE,157,3.0,8.0,48,0.00,,,0.12,Rainwise IP-100,2013-05-16 22:10:00,
2013-05-16 16:15:00,62.0,40.0,26.75,SSE,157,5.0,8.0,45,0.00,,,0.12,Rainwise IP-100,2013-05-16 22:15:00,
2013-05-16 16:20:00,63.0,41.0,26.75,ENE,67,3.0,8.0,45,0.00,,,0.12,Rainwise IP-100,2013-05-16 22:20:00,
2013-05-16 16:25:00,63.0,41.0,26.75,West,270,1.0,7.0,44,0.00,,,0.12,Rainwise IP-100,2013-05-16 22:25:00,
2013-05-16 16:30:00,62.0,40.0,26.74,NNW,337,5.0,9.0,45,0.00,,,0.12,Rainwise IP-100,2013-05-16 22:30:00,
2013-05-16 16:35:00,63.0,41.0,26.74,ENE,67,3.0,6.0,44,0.00,,,0.12,Rainwise IP-100,2013-05-16 22:35:00,
2013-05-16 16:40:00,63.0,41.0,26.74,SE,135,4.0,7.0,44,0.00,,,0.12,Rainwise IP-100,2013-05-16 22:40:00,
2013-05-16 16:45:00,63.0,40.0,26.74,SSE,157,6.0,7.0,43,0.00,,,0.12,Rainwise IP-100,2013-05-16 22:45:00,
2013-05-16 16:50:00,63.0,39.0,26.74,ESE,112,1.0,7.0,42,0.00,,,0.12,Rainwise IP-100,2013-05-16 22:50:00,
2013-05-16 16:55:00,64.0,41.0,26.74,WNW,292,4.0,7.0,44,0.00,,,0.12,Rainwise IP-100,2013-05-16 22:55:00,
2013-05-16 17:00:00,63.0,40.0,26.73,WNW,292,3.0,8.0,43,0.00,,,0.12,Rainwise IP-100,2013-05-16 23:00:00,
2013-05-16 17:05:00,64.0,40.0,26.73,SW,225,0.0,6.0,42,0.00,,,0.12,Rainwise IP-100,2013-05-16 23:05:00,
2013-05-16 17:10:00,64.0,40.0,26.73,North,360,1.0,6.0,41,0.00,,,0.12,Rainwise IP-100,2013-05-16 23:10:00,
2013-05-16 17:15:00,64.0,39.0,26.73,NW,315,4.0,7.0,40,0.00,,,0.12,Rainwise IP-100,2013-05-16 23:15:00,
2013-05-16 17:20:00,64.0,40.0,26.73,North,360,2.0,6.0,41,0.00,,,0.12,Rainwise IP-100,2013-05-16 23:20:00,
2013-05-16 17:25:00,64.0,40.0,26.73,NNW,337,5.0,7.0,41,0.00,,,0.12,Rainwise IP-100,2013-05-16 23:25:00,
2013-05-16 17:30:00,63.0,40.0,26.72,West,270,5.0,9.0,43,0.00,,,0.12,Rainwise IP-100,2013-05-16 23:30:00,
2013-05-16 17:35:00,63.0,40.0,26.72,North,360,3.0,10.0,43,0.00,,,0.12,Rainwise IP-100,2013-05-16 23:35:00,
2013-05-16 17:40:00,63.0,40.0,26.73,WSW,247,3.0,9.0,43,0.00,,,0.12,Rainwise IP-100,2013-05-16 23:40:00,
2013-05-16 17:45:00,64.0,41.0,26.73,NW,315,3.0,7.0,43,0.00,,,0.12,Rainwise IP-100,2013-05-16 23:45:00,
2013-05-16 17:50:00,64.0,40.0,26.72,NE,45,2.0,6.0,42,0.00,,,0.12,Rainwise IP-100,2013-05-16 23:50:00,
2013-05-16 17:55:00,64.0,40.0,26.72,NNW,337,6.0,6.0,42,0.00,,,0.12,Rainwise IP-100,2013-05-16 23:55:00,
2013-05-16 18:00:00,64.0,40.0,26.72,North,360,0.0,6.0,41,0.00,,,0.12,Rainwise IP-100,2013-05-17 00:00:00,
2013-05-16 18:05:00,64.0,39.0,26.72,NNW,337,4.0,6.0,40,0.00,,,0.12,Rainwise IP-100,2013-05-17 00:05:00,
2013-05-16 18:10:00,63.0,39.0,26.73,WNW,292,3.0,6.0,42,0.00,,,0.12,Rainwise IP-100,2013-05-17 00:10:00,
2013-05-16 18:15:00,63.0,39.0,26.73,SSW,202,0.0,5.0,42,0.00,,,0.12,Rainwise IP-100,2013-05-17 00:15:00,
2013-05-16 18:20:00,64.0,40.0,26.72,SSW,202,0.0,2.0,41,0.00,,,0.12,Rainwise IP-100,2013-05-17 00:20:00,
2013-05-16 18:25:00,63.0,38.0,26.72,SSE,157,0.0,6.0,40,0.00,,,0.12,Rainwise IP-100,2013-05-17 00:25:00,
2013-05-16 18:30:00,63.0,38.0,26.71,SE,135,4.0,6.0,40,0.00,,,0.12,Rainwise IP-100,2013-05-17 00:30:00,
2013-05-16 18:35:00,63.0,39.0,26.71,WSW,247,0.0,6.0,41,0.00,,,0.12,Rainwise IP-100,2013-05-17 00:35:00,
2013-05-16 18:40:00,63.0,39.0,26.71,ESE,112,6.0,6.0,42,0.00,,,0.12,Rainwise IP-100,2013-05-17 00:40:00,
2013-05-16 18:45:00,63.0,38.0,26.71,SSE,157,4.0,7.0,40,0.00,,,0.12,Rainwise IP-100,2013-05-17 00:45:00,
2013-05-16 18:50:00,63.0,39.0,26.72,SE,135,1.0,6.0,41,0.00,,,0.12,Rainwise IP-100,2013-05-17 00:50:00,
2013-05-16 18:55:00,63.0,39.0,26.72,SE,135,0.0,3.0,41,0.00,,,0.12,Rainwise IP-100,2013-05-17 00:55:00,
2013-05-16 19:00:00,64.0,39.0,26.71,South,180,1.0,5.0,40,0.00,,,0.12,Rainwise IP-100,2013-05-17 01:00:00,
2013-05-16 19:05:00,64.0,39.0,26.71,SSE,157,1.0,5.0,40,0.00,,,0.12,Rainwise IP-100,2013-05-17 01:05:00,
2013-05-16 19:10:00,64.0,38.0,26.71,SSW,202,1.0,5.0,39,0.00,,,0.12,Rainwise IP-100,2013-05-17 01:10:00,
2013-05-16 19:15:00,65.0,39.0,26.71,North,360,0.0,4.0,39,0.00,,,0.12,Rainwise IP-100,2013-05-17 01:15:00,
2013-05-16 19:20:00,65.0,39.0,26.71,SE,135,5.0,6.0,39,0.00,,,0.12,Rainwise IP-100,2013-05-17 01:20:00,
2013-05-16 19:25:00,65.0,39.0,26.71,SSW,202,2.0,6.0,39,0.00,,,0.12,Rainwise IP-100,2013-05-17 01:25:00,
2013-05-16 19:30:00,65.0,39.0,26.71,NNW,337,4.0,6.0,39,0.00,,,0.12,Rainwise IP-100,2013-05-17 01:30:00,
2013-05-16 19:35:00,64.0,39.0,26.71,NW,315,2.0,6.0,40,0.00,,,0.12,Rainwise IP-100,2013-05-17 01:35:00,
2013-05-16 19:40:00,64.0,38.0,26.71,West,270,0.0,6.0,39,0.00,,,0.12,Rainwise IP-100,2013-05-17 01:40:00,
2013-05-16 19:45:00,64.0,38.0,26.71,West,270,0.0,3.0,39,0.00,,,0.12,Rainwise IP-100,2013-05-17 01:45:00,
2013-05-16 19:50:00,65.0,39.0,26.71,West,270,0.0,0.0,39,0.00,,,0.12,Rainwise IP-100,2013-05-17 01:50:00,
2013-05-16 19:55:00,65.0,38.0,26.71,West,270,0.0,2.0,37,0.00,,,0.12,Rainwise IP-100,2013-05-17 01:55:00,
2013-05-16 20:00:00,65.0,38.0,26.71,North,360,0.0,3.0,37,0.00,,,0.12,Rainwise IP-100,2013-05-17 02:00:00,
2013-05-16 20:05:00,65.0,38.0,26.71,North,360,3.0,4.0,37,0.00,,,0.12,Rainwise IP-100,2013-05-17 02:05:00,
2013-05-16 20:10:00,64.0,38.0,26.71,North,360,0.0,3.0,39,0.00,,,0.12,Rainwise IP-100,2013-05-17 02:10:00,
2013-05-16 20:15:00,63.0,38.0,26.71,NE,45,2.0,5.0,40,0.00,,,0.12,Rainwise IP-100,2013-05-17 02:15:00,
2013-05-16 20:20:00,62.0,39.0,26.72,NE,45,1.0,3.0,42,0.00,,,0.12,Rainwise IP-100,2013-05-17 02:20:00,
2013-05-16 20:25:00,61.0,38.0,26.72,NE,45,0.0,2.0,42,0.00,,,0.12,Rainwise IP-100,2013-05-17 02:25:00,
2013-05-16 20:30:00,61.0,39.0,26.73,NE,45,0.0,0.0,44,0.00,,,0.12,Rainwise IP-100,2013-05-17 02:30:00,
2013-05-16 20:35:00,60.0,39.0,26.73,NE,45,0.0,3.0,46,0.00,,,0.12,Rainwise IP-100,2013-05-17 02:35:00,
2013-05-16 20:40:00,59.0,38.0,26.74,NE,45,0.0,0.0,46,0.00,,,0.12,Rainwise IP-100,2013-05-17 02:40:00,
2013-05-16 20:45:00,59.0,39.0,26.74,NE,45,0.0,2.0,48,0.00,,,0.12,Rainwise IP-100,2013-05-17 02:45:00,
2013-05-16 20:50:00,58.0,39.0,26.75,NE,45,0.0,1.0,49,0.00,,,0.12,Rainwise IP-100,2013-05-17 02:50:00,
2013-05-16 20:55:00,57.0,40.0,26.75,NE,45,0.0,0.0,53,0.00,,,0.12,Rainwise IP-100,2013-05-17 02:55:00,
2013-05-16 21:00:00,57.0,40.0,26.76,NE,45,1.0,3.0,54,0.00,,,0.12,Rainwise IP-100,2013-05-17 03:00:00,
2013-05-16 21:05:00,57.0,41.0,26.76,East,90,1.0,6.0,55,0.00,,,0.12,Rainwise IP-100,2013-05-17 03:05:00,
2013-05-16 21:10:00,56.0,40.0,26.77,ESE,112,0.0,2.0,56,0.00,,,0.12,Rainwise IP-100,2013-05-17 03:10:00,
2013-05-16 21:15:00,56.0,42.0,26.77,ESE,112,2.0,4.0,59,0.00,,,0.12,Rainwise IP-100,2013-05-17 03:15:00,
2013-05-16 21:20:00,55.0,41.0,26.77,SE,135,3.0,6.0,60,0.00,,,0.12,Rainwise IP-100,2013-05-17 03:20:00,
2013-05-16 21:25:00,55.0,42.0,26.77,South,180,4.0,4.0,61,0.00,,,0.12,Rainwise IP-100,2013-05-17 03:25:00,
2013-05-16 21:30:00,55.0,42.0,26.78,South,180,2.0,4.0,62,0.00,,,0.12,Rainwise IP-100,2013-05-17 03:30:00,
2013-05-16 21:35:00,54.0,41.0,26.78,SSE,157,0.0,6.0,63,0.00,,,0.12,Rainwise IP-100,2013-05-17 03:35:00,
2013-05-16 21:40:00,54.0,42.0,26.79,SE,135,3.0,4.0,65,0.00,,,0.12,Rainwise IP-100,2013-05-17 03:40:00,
2013-05-16 21:45:00,53.0,41.0,26.79,SE,135,3.0,4.0,66,0.00,,,0.12,Rainwise IP-100,2013-05-17 03:45:00,
2013-05-16 21:50:00,53.0,42.0,26.79,SE,135,2.0,6.0,67,0.00,,,0.12,Rainwise IP-100,2013-05-17 03:50:00,
2013-05-16 21:55:00,53.0,42.0,26.79,SSW,202,1.0,6.0,67,0.00,,,0.12,Rainwise IP-100,2013-05-17 03:55:00,
2013-05-16 22:00:00,52.0,41.0,26.80,ENE,67,4.0,4.0,67,0.00,,,0.12,Rainwise IP-100,2013-05-17 04:00:00,
2013-05-16 22:01:00,52.0,41.0,26.80,East,90,3.0,4.0,67,0.00,,,0.12,Rainwise IP-100,2013-05-17 04:01:00,
2013-05-16 22:06:00,52.0,42.0,26.80,East,90,4.0,7.0,68,0.00,,,0.12,Rainwise IP-100,2013-05-17 04:06:00,
2013-05-16 22:11:00,52.0,42.0,26.80,ENE,67,7.0,7.0,68,0.00,,,0.12,Rainwise IP-100,2013-05-17 04:11:00,
2013-05-16 22:16:00,52.0,42.0,26.80,ESE,112,4.0,7.0,68,0.00,,,0.12,Rainwise IP-100,2013-05-17 04:16:00,
2013-05-16 22:21:00,51.0,41.0,26.80,ENE,67,3.0,6.0,68,0.00,,,0.12,Rainwise IP-100,2013-05-17 04:21:00,
2013-05-16 22:26:00,51.0,41.0,26.80,East,90,2.0,7.0,68,0.00,,,0.12,Rainwise IP-100,2013-05-17 04:26:00,
2013-05-16 22:31:00,51.0,41.0,26.81,East,90,2.0,4.0,69,0.00,,,0.12,Rainwise IP-100,2013-05-17 04:31:00,
2013-05-16 22:36:00,51.0,42.0,26.81,ENE,67,2.0,4.0,70,0.00,,,0.12,Rainwise IP-100,2013-05-17 04:36:00,
2013-05-16 22:41:00,51.0,42.0,26.81,East,90,3.0,5.0,70,0.00,,,0.12,Rainwise IP-100,2013-05-17 04:41:00,
2013-05-16 22:46:00,50.0,40.0,26.81,ESE,112,1.0,5.0,70,0.00,,,0.12,Rainwise IP-100,2013-05-17 04:46:00,
2013-05-16 22:51:00,50.0,40.0,26.81,ESE,112,0.0,4.0,70,0.00,,,0.12,Rainwise IP-100,2013-05-17 04:51:00,
2013-05-16 22:56:00,50.0,40.0,26.81,SE,135,1.0,5.0,70,0.00,,,0.12,Rainwise IP-100,2013-05-17 04:56:00,
2013-05-16 23:01:00,50.0,40.0,26.81,SE,135,0.0,2.0,70,0.00,,,0.12,Rainwise IP-100,2013-05-17 05:01:00,
2013-05-16 23:06:00,50.0,40.0,26.81,East,90,0.0,3.0,70,0.00,,,0.12,Rainwise IP-100,2013-05-17 05:06:00,
2013-05-16 23:11:00,50.0,41.0,26.82,East,90,2.0,4.0,72,0.00,,,0.12,Rainwise IP-100,2013-05-17 05:11:00,
2013-05-16 23:16:00,50.0,41.0,26.82,SE,135,3.0,6.0,72,0.00,,,0.12,Rainwise IP-100,2013-05-17 05:16:00,
2013-05-16 23:21:00,50.0,41.0,26.82,ENE,67,1.0,4.0,72,0.00,,,0.12,Rainwise IP-100,2013-05-17 05:21:00,
2013-05-16 23:26:00,50.0,41.0,26.82,East,90,2.0,6.0,71,0.00,,,0.12,Rainwise IP-100,2013-05-17 05:26:00,
2013-05-16 23:31:00,50.0,40.0,26.82,ENE,67,0.0,6.0,70,0.00,,,0.12,Rainwise IP-100,2013-05-17 05:31:00,
2013-05-16 23:36:00,50.0,41.0,26.82,ENE,67,1.0,7.0,71,0.00,,,0.12,Rainwise IP-100,2013-05-17 05:36:00,
2013-05-16 23:41:00,50.0,40.0,26.81,ENE,67,5.0,7.0,70,0.00,,,0.12,Rainwise IP-100,2013-05-17 05:41:00,
2013-05-16 23:46:00,50.0,41.0,26.81,ENE,67,1.0,5.0,71,0.00,,,0.12,Rainwise IP-100,2013-05-17 05:46:00,
2013-05-16 23:51:00,50.0,40.0,26.81,ENE,67,0.0,4.0,70,0.00,,,0.12,Rainwise IP-100,2013-05-17 05:51:00,
2013-05-16 23:56:00,49.0,40.0,26.81,ENE,67,1.0,3.0,71,0.00,,,0.12,Rainwise IP-100,2013-05-17 05:56:00,